sat.trackr.live / text

‹ back to catalog

STARLINK-31996

NORAD 60100 · 2024-117K

PAYLOAD ACTIVE UNKNOWN

§ Identity

Operator
Country
US
Launch date
2024-06-23
Launch site
AFETR
Launch vehicle
Mass (kg)
RCS (m²)

Purposes: comms

External: N2YO · Heavens-Above · Gunter

§ Orbital elements

Epoch: 2026-05-25T03:12:24.503616Z

Period
94.11 min
Inclination
53.1607°
Eccentricity
0.0001168
Mean motion
15.30198877 rev/d
Perigee alt
474.4 km
Apogee alt
476.0 km
Semi-major
6,853.4 km
B*
3.5792e-5
RAAN
41.8172°
Arg perigee
87.0362°
Mean anomaly
273.0773°
Rev number
10,859

§ Raw data

STARLINK-319961 60100U 24117K   26145.13361694  .00000701  00000+0  35792-4 0  99902 60100  53.1607  41.8172 0001168  87.0362 273.0773 15.30198877108597

JSON: /api/v1/satellites/60100 · /tle

For live sub-satellite position, see the globe view (requires WebGL).

§ Visibility from observer

Set your observer location to see the next 7 days of passes ≥ 10°. The values pass through the URL so the page stays shareable.

No JS? Fill the form by hand. The geolocation button needs JavaScript.